Flag for Taiwan Weather past 2 weeks in Kaohsiung, Taiwan

Now
90 °F

Broken clouds.


Feels Like: 95 °F
Forecast: 72 / 88 °F
Wind: 9 mph from Northwest

Location: Kaohsiung International Airport

Current Time: Oct 26, 2014 at 1:58:52 PM

Latest Report: Oct 26, 2014 at 1:30 PM


Visibility: 3 mi

Pressure: 29.98 "Hg

Humidity: 52%

Dew point: 70 °F

Location of KaohsiungLocation

Historic Weather in Kaohsiung — Graph

°F

Kaohsiung temperature yesterday

Maximum temperature yesterday: 86 °F (at 2:00 PM)
Minimum temperature yesterday: 73 °F (at 6:30 AM)
Average temperature yesterday: 80 °F

Past Weeks' High & Low Weather Summary

 TemperatureHumidityPressure
High91 °F (Oct 11, 12:00 PM)94% (Oct 25, 6:30 AM)30.09 "Hg (Oct 25, 6:30 AM)
Low68 °F (Oct 16, 6:00 AM)43% (Oct 18, 11:30 AM)29.65 "Hg (Oct 11, 2:30 PM)
Average80 °F68%29.96 "Hg
* Reported Oct 11 12:00 Noon — Oct 26 12:30 PM, Kaohsiung, Weather by CustomWeather, © 2014

Note: Actual official high and low records may vary slightly from our data, if they occured in-between our weather recording intervals... More about our weather records

Advertising

Kaohsiung weather history for previous 24 hours

 ConditionsComfort  
Time TempWeatherWind HumidityBarometerVisibility
12:30 PM
Oct 26
88 °FBroken clouds.10 mph59%29.98 "Hg3 mi
12:00 PM86 °FBroken clouds.9 mph62%30.01 "Hg3 mi
11:30 AM88 °FBroken clouds.10 mph62%30.01 "Hg3 mi
10:30 AM88 °FScattered clouds.7 mph59%30.04 "Hg3 mi
10:00 AM88 °FScattered clouds.2 mph55%30.04 "Hg3 mi
9:30 AM84 °FScattered clouds.5 mph62%30.04 "Hg2 mi
9:00 AM84 °FScattered clouds.3 mph66%30.04 "Hg2 mi
8:30 AM81 °FBroken clouds.3 mph70%30.04 "Hg3 mi
8:00 AM81 °FBroken clouds.3 mph74%30.04 "Hg2 mi
7:30 AM79 °FBroken clouds.3 mph79%30.01 "Hg2 mi
7:00 AM75 °FFog.3 mph89%30.01 "Hg2 mi
6:30 AM75 °FFog.3 mph83%30.01 "Hg2 mi
6:00 AM75 °FFog.5 mph83%30.01 "Hg2 mi
5:00 AM75 °FFog.5 mph89%30.01 "Hg2 mi
4:00 AM75 °FFog.5 mph89%29.98 "Hg2 mi
3:00 AM75 °FFog.2 mph89%29.98 "Hg3 mi
2:00 AM75 °FPassing clouds.6 mph89%30.01 "Hg4 mi
1:00 AM79 °FPassing clouds.2 mph79%30.01 "HgN/A
12:00 AM79 °FPassing clouds.3 mph74%30.04 "HgN/A
11:30 PM
Oct 25
81 °FPassing clouds.3 mph70%30.04 "HgN/A
11:00 PM81 °FPassing clouds.3 mph70%30.04 "HgN/A
10:30 PM79 °FPassing clouds.3 mph74%30.04 "HgN/A
10:00 PM79 °FPartly cloudy.5 mph79%30.04 "HgN/A
9:30 PM81 °FPartly cloudy.5 mph74%30.04 "HgN/A
9:00 PM81 °FPartly cloudy.5 mph70%30.04 "HgN/A
8:30 PM81 °FPartly cloudy.5 mph70%30.04 "Hg6 mi
8:00 PM81 °FPartly cloudy.2 mph66%30.04 "HgN/A
7:30 PM79 °FPartly cloudy.5 mph70%30.01 "HgN/A
7:00 PM79 °FPartly cloudy.3 mph70%30.01 "HgN/A
6:30 PM79 °FPartly cloudy.6 mph70%30.01 "HgN/A
6:00 PM81 °FPartly cloudy.6 mph70%29.98 "HgN/A
5:30 PM81 °FPartly cloudy.8 mph66%29.98 "HgN/A
5:00 PM81 °FBroken clouds.10 mph70%29.98 "HgN/A
4:30 PM82 °FBroken clouds.10 mph66%29.98 "HgN/A
4:00 PM84 °FBroken clouds.10 mph62%29.98 "HgN/A
3:30 PM84 °FBroken clouds.12 mph58%29.98 "HgN/A
3:00 PM86 °FBroken clouds.10 mph55%29.95 "HgN/A
2:30 PM84 °FBroken clouds.12 mph51%29.98 "HgN/A
2:00 PM86 °FBroken clouds.12 mph55%29.98 "Hg5 mi
1:30 PM84 °FBroken clouds.12 mph62%29.98 "Hg5 mi
1:00 PM84 °FBroken clouds.12 mph66%29.98 "Hg3 mi
Weather by CustomWeather, © 2014

See weather overviewHow to use our weather pages